TimeCDT,TemperatureF,Dew PointF,Humidity,Sea Level PressureIn,VisibilityMPH,Wind Direction,Wind SpeedMPH,Gust SpeedMPH,PrecipitationIn,Events,Conditions,WindDirDegrees,DateUTC
12:15 AM,55.4,42.8,63,29.96,10.0,NNW,16.1,-,N/A,,Clear,340,2012-11-03 05:15:00
12:35 AM,55.4,42.8,63,29.97,10.0,NNW,16.1,-,N/A,,Clear,340,2012-11-03 05:35:00
12:55 AM,55.4,41.0,58,29.98,10.0,NNW,15.0,-,N/A,,Clear,340,2012-11-03 05:55:00
1:15 AM,53.6,41.0,62,29.99,10.0,North,15.0,21.9,N/A,,Clear,350,2012-11-03 06:15:00
1:35 AM,51.8,41.0,67,29.99,10.0,NNW,16.1,-,N/A,,Clear,340,2012-11-03 06:35:00
1:55 AM,51.8,39.2,62,30.00,10.0,ENE,17.3,-,N/A,,Clear,60,2012-11-03 06:55:00
2:15 AM,51.8,37.4,58,30.00,10.0,NNE,16.1,-,N/A,,Clear,30,2012-11-03 07:15:00
2:35 AM,50.0,37.4,62,30.02,10.0,NNW,13.8,20.7,N/A,,Clear,340,2012-11-03 07:35:00
2:55 AM,50.0,37.4,62,30.02,10.0,NNW,13.8,-,N/A,,Clear,340,2012-11-03 07:55:00
3:15 AM,50.0,37.4,62,30.03,10.0,NNW,11.5,-,N/A,,Clear,340,2012-11-03 08:15:00
3:35 AM,48.2,37.4,66,30.03,10.0,NNW,12.7,-,N/A,,Clear,340,2012-11-03 08:35:00
3:55 AM,46.4,37.4,71,30.04,10.0,North,9.2,-,N/A,,Clear,350,2012-11-03 08:55:00
4:15 AM,46.4,35.6,66,30.06,10.0,NNW,8.1,-,N/A,,Clear,340,2012-11-03 09:15:00
4:35 AM,44.6,35.6,71,30.06,10.0,NNW,9.2,-,N/A,,Clear,330,2012-11-03 09:35:00
4:55 AM,44.6,35.6,71,30.08,10.0,NNW,8.1,-,N/A,,Clear,340,2012-11-03 09:55:00
5:15 AM,44.6,35.6,71,30.09,10.0,NNW,9.2,-,N/A,,Clear,340,2012-11-03 10:15:00
5:35 AM,44.6,35.6,71,30.09,10.0,NNW,10.4,-,N/A,,Clear,340,2012-11-03 10:35:00
5:55 AM,44.6,35.6,71,30.10,10.0,North,12.7,16.1,N/A,,Clear,350,2012-11-03 10:55:00
6:15 AM,44.6,35.6,71,30.11,10.0,NNW,13.8,-,N/A,,Clear,340,2012-11-03 11:15:00
6:50 AM,42.8,35.6,76,30.12,10.0,NNW,13.8,-,N/A,,Clear,340,2012-11-03 11:50:00
7:50 AM,42.8,33.8,70,30.15,10.0,NNW,13.8,24.2,N/A,,Scattered Clouds,330,2012-11-03 12:50:00
8:50 AM,42.8,33.8,70,30.17,10.0,NNW,12.7,23.0,N/A,,Scattered Clouds,330,2012-11-03 13:50:00
9:50 AM,48.2,33.8,58,30.20,10.0,North,11.5,-,N/A,,Scattered Clouds,360,2012-11-03 14:50:00
10:50 AM,50.0,33.8,54,30.20,10.0,North,13.8,-,N/A,,Scattered Clouds,360,2012-11-03 15:50:00
11:50 AM,55.4,33.8,44,30.20,10.0,North,13.8,-,N/A,,Scattered Clouds,360,2012-11-03 16:50:00
12:55 PM,59.0,33.8,39,30.19,10.0,North,11.5,-,N/A,,Scattered Clouds,360,2012-11-03 17:55:00
1:50 PM,60.8,33.8,36,30.18,10.0,North,9.2,-,N/A,,Scattered Clouds,350,2012-11-03 18:50:00
2:50 PM,64.4,33.8,32,30.16,10.0,North,11.5,-,N/A,,Partly Cloudy,360,2012-11-03 19:50:00
3:55 PM,66.2,33.8,30,30.14,10.0,NE,11.5,-,N/A,,Scattered Clouds,50,2012-11-03 20:55:00
5:50 PM,62.6,33.8,34,30.15,10.0,North,11.5,-,N/A,,Mostly Cloudy,360,2012-11-03 22:50:00
6:50 PM,55.4,33.8,44,30.15,10.0,North,11.5,-,N/A,,Mostly Cloudy,10,2012-11-03 23:50:00
7:50 PM,50.0,32.0,50,30.16,10.0,West,6.9,-,N/A,,Scattered Clouds,260,2012-11-04 00:50:00
8:50 PM,48.2,33.8,58,30.17,10.0,NNE,6.9,-,N/A,,Partly Cloudy,20,2012-11-04 01:50:00
9:15 PM,46.4,32.0,57,30.16,10.0,NNE,5.8,-,N/A,,Clear,20,2012-11-04 02:15:00
9:35 PM,46.4,33.8,62,30.16,10.0,NNE,6.9,-,N/A,,Clear,20,2012-11-04 02:35:00
9:55 PM,46.4,33.8,62,30.16,10.0,NNE,6.9,-,N/A,,Clear,20,2012-11-04 02:55:00
10:15 PM,46.4,32.0,57,30.17,10.0,North,6.9,-,N/A,,Clear,10,2012-11-04 03:15:00
10:35 PM,46.4,33.8,62,30.17,10.0,NNE,6.9,-,N/A,,Clear,30,2012-11-04 03:35:00
10:55 PM,44.6,33.8,66,30.17,10.0,North,8.1,-,N/A,,Clear,10,2012-11-04 03:55:00
11:15 PM,44.6,33.8,66,30.17,10.0,NNE,6.9,-,N/A,,Clear,30,2012-11-04 04:15:00
11:35 PM,44.6,33.8,66,30.17,10.0,NNE,5.8,-,N/A,,Clear,20,2012-11-04 04:35:00
11:55 PM,44.6,33.8,66,30.18,10.0,NNE,5.8,-,N/A,,Clear,20,2012-11-04 04:55:00